Hourly Data Report for October 30, 2020

VICTORIA UNIVERSITY CS
BRITISH COLUMBIA
Current Station Operator: ECCC - MSC

48°27'25.200" N
123°18'16.600" W
60.10 m
1018598
71783
WYJ

Download Data

Hourly Data (October 2020)
Hourly Data Report for October 30, 2020
TIME
LST
Temp Definition
°C
Dew Point Definition
°C
Rel Hum Definition
%
Precip. Amount Definition
mm

Wind Dir Definition
10's deg

Wind Spd Definition
km/h
Visibility Definition
km
Stn Press Definition
kPa
Hmdx Definition


Wind Chill Definition


Weather Definition


00:00 10.6 9.7 94 0.0 17 7   100.37     LegendNANA
01:00 10.0 10.0 100 0.0 14 3   100.18     LegendNANA
02:00 9.7 9.7 100 0.7 17 5   100.17     LegendNANA
03:00 9.5 9.5 100 3.8 19 6   100.25     LegendNANA
04:00 10.7 10.1 96 0.4 23 10   100.20     LegendNANA
05:00 10.1 9.1 93 0.0 24 11   100.23     LegendNANA
06:00 9.7 6.9 83 0.0 23 15   100.40     LegendNANA
07:00 9.6 6.9 83 0.0 25 10   100.52     LegendNANA
08:00 10.1 6.1 76 0.0 25 15   100.57     LegendNANA
09:00 10.8 6.0 72 0.0 25 21   100.60     LegendNANA
10:00 12.1 5.8 66 0.2 25 14   100.80     LegendNANA
11:00 12.1 5.8 65 0.0 25 10   100.95     LegendNANA
12:00 13.2 5.6 60 0.0 25 11   101.02     LegendNANA
13:00 13.0 5.4 60 0.0 25 12   101.08     LegendNANA
14:00 13.1 5.1 58 0.0 25 12   101.19     LegendNANA
15:00 12.6 3.7 54 0.0 25 10   101.26     LegendNANA
16:00 11.0 4.3 63 0.0 25 10   101.35     LegendNANA
17:00 9.6 4.5 70 0.0 26 8   101.42     LegendNANA
18:00 7.1 4.5 84 0.0 27 4   101.54     LegendNANA
19:00 8.4 5.2 80 0.0 25 5   101.64     LegendNANA
20:00 7.1 4.4 82 0.0 24 4   101.68     LegendNANA
21:00 6.3 5.0 92 0.0 25 4   101.76     LegendNANA
22:00 6.0 5.2 95 0.0 24 4   101.80     LegendNANA
23:00 5.0 4.5 97 0.0 26 3   101.87     LegendNANA

Notes on Data Quality.

Legend

  • E = Estimated
  • M = Missing
  • NA = Not Available*
  • [empty] = Indicates an unobserved value
Date modified: